Location: Allie Creek
(37.5926°N, 89.8526°W)
Time: 04:32:36
(UTC+00:00)

Cosmos 1666 Rocket - Pass Details

Date: 26 September 2023
Orbit: 601 x 631 km, 82.5° (Epoch: 29 November)

Event Time Altitude Azimuth Distance (km) Brightness Sun altitude
Rises 00:25:09 0° 189° (S) 2,901 7.1 -7.4°
Reaches altitude 10° 00:27:22 10° 191° (S) 2,001 6.3 -7.8°
Maximum altitude 00:31:48 77° 277° (W) 652 3.8 -8.7°
Drops below altitude 10° 00:36:17 10° 4° (N) 2,019 6.2 -9.6°
Sets 00:38:33 0° 6° (N) 2,930 7.0 -10.1°
